Wind_Speed
22 20 18 16 15 14 14 16 17 19 21 22 22 21 20 18 15 13 12 11 10 7 4 4 4 5 9 13 16 16 17 19 25 24 28 30 29 28 32 37 42 48 51 55 61 61 68
20 19 17 16 15 14 15 16 18 21 24 25 25 22 20 17 13 10 8 7 4 4 5 5 6 7 10 14 17 17 18 22 22 23 27 27 31 34 34 36 43 48 54 60 63 65 73
19 18 15 14 14 13 14 15 17 22 26 27 25 22 19 15 10 5 1 4 5 7 8 8 9 13 16 16 18 19 17 18 20 23 22 25 33 36 37 44 45 47 56 59 72 75 80
17 14 12 11 10 9 8 11 16 21 23 23 20 17 13 8 4 9 14 14 13 11 11 13 13 14 15 15 16 18 15 17 21 26 24 31 33 38 42 49 49 54 57 61 71 80 84
15 10 8 7 6 5 4 6 10 11 3 1 5 7 9 15 19 18 15 15 15 15 14 13 13 14 13 12 15 18 17 21 23 26 29 35 37 37 47 51 57 63 63 58 66 80 85
13 7 6 6 4 3 2 2 10 15 16 17 19 22 26 23 20 16 13 12 11 13 15 15 13 13 14 15 18 18 18 21 22 25 30 38 36 43 48 54 63 66 64 68 67 76 86
14 9 7 6 5 3 3 3 8 13 18 22 23 22 21 20 17 13 12 11 10 11 13 15 16 17 17 18 19 23 25 25 27 28 33 36 36 47 50 57 64 68 70 71 72 77 81
15 11 9 7 6 5 4 3 3 8 11 13 15 16 15 14 12 10 9 8 10 12 13 15 17 19 20 20 21 23 25 26 28 30 33 34 41 50 55 61 64 68 72 73 71 76 81
16 13 12 10 8 8 8 4 3 6 7 8 9 8 8 8 8 7 8 8 11 13 15 17 19 20 20 22 25 25 28 29 29 31 34 39 44 52 55 59 64 70 75 76 72 74 82
17 14 14 12 10 11 10 7 4 4 2 5 6 6 6 5 5 8 8 10 13 17 19 23 25 23 23 25 28 32 33 33 33 33 33 39 45 50 51 58 66 72 77 78 77 79 87
18 16 15 15 13 13 13 9 7 5 3 4 3 1 0 5 8 9 10 13 17 19 21 26 29 30 30 27 29 31 30 33 32 31 33 38 44 47 51 60 70 73 76 78 75 80 87
20 19 17 18 18 15 15 13 11 10 8 8 7 5 5 8 11 11 13 15 19 21 25 28 31 31 33 29 29 31 32 32 35 34 34 38 47 50 53 66 71 74 76 74 72 83 88
21 21 22 22 21 18 16 15 15 14 13 12 12 11 11 10 11 12 15 19 22 25 27 30 30 33 31 29 29 34 32 31 33 38 38 42 47 50 58 64 71 75 78 73 70 81 95
23 21 22 25 24 22 19 18 17 16 15 14 13 15 14 14 15 15 17 18 22 24 27 31 33 36 33 30 29 34 33 33 34 34 39 44 48 53 60 66 70 76 77 82 80 87 99
24 22 22 26 25 26 22 21 21 20 18 17 16 17 18 18 18 19 20 22 24 27 30 34 38 42 36 34 32 34 35 34 36 36 39 43 50 56 66 68 74 79 75 84 80 87 91
28 26 25 27 27 27 25 24 23 23 22 22 22 22 22 22 23 23 25 27 28 31 34 38 41 42 37 38 37 32 33 35 38 42 46 51 55 58 64 70 74 80 79 87 88 97 97
31 29 29 29 29 29 29 27 25 24 23 23 24 25 25 27 28 28 29 30 32 34 37 41 43 44 42 40 38 34 35 38 39 42 46 51 57 63 65 71 77 84 84 87 89 98 105
33 31 32 32 31 31 30 30 29 28 28 27 25 26 29 31 31 32 32 34 36 38 42 44 45 47 43 37 39 38 39 39 40 43 48 54 59 68 69 75 74 78 88 93 96 98 105
32 32 33 32 32 31 32 32 31 31 32 31 30 30 31 32 33 33 33 35 39 42 45 47 47 42 40 40 39 42 41 40 44 49 53 57 59 66 72 73 72 79 87 94 98 98 101
33 33 33 33 34 34 35 36 36 35 34 34 34 33 33 32 33 34 36 39 42 43 43 43 40 38 40 45 42 39 39 42 46 51 58 60 65 71 79 85 87 87 94 97 100 101 102
37 37 36 36 37 37 36 35 36 37 37 37 36 34 34 35 36 38 40 42 44 46 41 39 39 41 42 40 44 49 53 53 56 61 65 66 64 66 78 82 90 92 91 96 100 102 103
40 41 41 40 40 39 38 38 36 34 34 35 35 36 38 39 41 43 43 46 46 42 40 41 42 45 44 41 46 48 53 54 62 66 70 68 65 60 72 78 84 90 92 95 98 105 105
47 46 44 42 42 41 41 40 40 39 40 41 41 43 44 46 48 48 48 45 41 41 43 44 43 43 45 48 51 54 58 60 65 71 76 78 78 75 71 82 86 91 93 97 97 102 105
47 47 48 49 47 46 45 45 47 47 47 48 47 47 47 46 47 46 47 45 46 45 45 47 45 45 49 49 50 55 59 61 67 73 80 82 84 88 83 86 89 94 97 97 98 100 101
49 49 50 49 49 50 50 50 50 51 51 50 50 49 48 45 46 50 51 51 51 50 52 52 49 52 55 53 54 53 58 65 71 77 79 84 87 94 93 92 92 96 99 101 103 97 99
53 53 53 51 51 52 51 51 50 50 50 50 51 51 51 50 52 53 56 58 57 57 57 57 58 61 63 64 64 65 66 72 77 77 80 85 91 100 99 101 102 103 104 104 107 99 98
57 54 56 57 59 60 57 56 56 56 57 57 59 57 56 55 58 59 60 62 62 62 62 61 62 66 68 68 67 72 76 77 80 80 85 87 94 103 105 105 104 105 107 107 108 104 101
68 66 62 61 61 62 65 64 65 64 64 65 66 66 64 62 63 64 67 66 64 66 66 67 68 75 75 78 79 81 80 83 85 83 90 92 101 109 108 107 109 107 108 108 106 104 102
74 73 73 74 74 75 75 73 70 72 74 73 73 75 74 72 69 70 70 73 73 75 75 78 79 81 83 82 86 87 86 89 85 85 89 95 102 111 108 108 108 107 107 107 105 102 99
Wind_Direction
173 179 184 191 203 213 227 236 247 254 260 261 262 265 267 269 275 287 301 299 309 319 342 352 13 12 9 0 349 349 351 342 345 342 348 350 343 321 312 316 323 326 331 328 327 334 333
173 181 193 202 209 221 237 251 261 264 266 266 266 268 272 274 279 289 294 304 324 351 9 20 14 3 352 341 336 335 337 341 349 341 338 340 349 343 339 333 325 334 336 339 339 336 330
181 187 197 211 223 239 254 265 275 278 275 270 266 265 264 268 269 282 10 60 29 13 359 345 342 342 337 335 332 332 339 350 357 354 348 342 345 345 341 339 329 327 336 340 338 337 334
186 194 210 223 237 252 273 293 297 293 280 270 262 255 251 238 201 118 97 77 55 26 359 353 344 339 335 332 331 334 339 346 344 347 344 344 342 341 340 344 347 339 330 331 340 340 339
185 187 208 225 230 257 283 302 344 355 343 165 167 162 140 127 120 107 94 74 59 40 22 9 353 352 344 346 339 342 334 336 337 338 335 338 341 333 342 347 349 346 342 331 333 334 341
177 186 200 214 232 237 238 356 39 52 77 96 108 115 117 114 112 98 87 70 50 40 29 25 11 359 349 335 340 340 336 342 339 337 334 339 342 342 346 346 344 341 342 338 340 347 348
181 188 196 223 218 211 194 91 77 82 95 104 109 113 115 105 101 89 67 52 44 34 21 16 16 7 355 341 330 332 333 333 337 333 335 338 343 348 339 336 339 343 343 342 344 352 352
187 192 201 223 211 188 190 146 108 106 103 105 107 103 97 93 85 72 52 27 19 11 10 3 1 357 353 349 344 338 331 326 328 332 335 340 337 338 338 339 343 343 345 343 344 348 352
197 201 208 220 212 198 195 180 148 125 113 106 117 107 93 92 73 55 31 14 0 352 347 344 347 349 345 340 337 336 338 332 328 330 333 332 340 339 342 341 342 344 345 341 341 345 353
205 209 212 219 215 206 205 203 182 150 132 121 116 113 96 79 53 17 354 349 346 346 343 341 339 339 339 340 341 337 338 343 331 325 326 331 332 337 343 343 345 348 347 344 344 351 356
213 216 219 223 222 213 211 216 215 218 191 170 153 153 313 341 345 346 335 339 341 344 346 344 340 332 332 335 336 335 333 332 331 337 339 341 340 342 342 344 344 344 346 345 346 350 355
218 218 219 224 225 220 220 220 228 234 235 231 235 257 294 318 323 330 338 343 349 348 345 341 338 332 332 330 332 334 332 335 334 335 340 339 334 339 342 345 345 345 342 343 347 346 352
220 224 225 227 225 225 227 226 230 234 241 238 243 255 270 293 308 321 333 344 347 345 341 337 335 334 335 333 328 334 331 332 333 337 338 337 339 340 342 346 344 341 340 341 348 354 352
225 228 236 229 227 227 234 239 238 238 240 244 252 258 268 282 297 305 320 334 340 340 335 329 330 334 329 328 321 327 329 331 332 331 331 334 338 337 340 344 345 342 341 344 344 356 354
232 233 239 228 229 231 235 243 246 249 250 256 266 271 274 285 293 301 309 316 320 324 324 327 329 332 326 322 321 325 329 328 332 332 329 332 334 337 340 340 343 343 344 345 344 350 354
235 237 234 228 233 235 238 244 250 252 257 264 268 273 277 281 287 295 299 307 310 316 320 324 325 329 323 321 319 321 326 324 324 330 333 335 337 339 342 341 342 341 342 344 347 348 353
237 239 232 229 234 237 241 247 254 257 261 269 273 275 278 280 285 290 294 301 307 312 319 321 322 323 320 318 318 320 323 325 325 328 332 335 335 337 340 340 341 341 341 342 346 348 349
238 236 231 231 239 240 242 247 253 256 263 270 274 275 273 277 283 290 293 299 306 310 313 316 319 319 319 318 321 322 321 324 326 332 334 335 335 333 337 339 340 341 340 345 344 346 347
234 232 232 238 242 241 245 248 252 257 262 268 273 278 279 280 285 288 291 299 303 307 310 315 318 316 317 320 325 328 324 326 332 332 336 337 335 334 335 336 337 341 341 338 343 344 344
235 236 240 242 242 246 249 249 252 258 262 268 272 276 280 280 284 288 290 295 301 305 309 312 316 318 320 323 323 328 333 327 329 332 336 337 337 336 336 338 338 336 338 341 340 342 344
238 239 240 241 246 250 253 255 256 260 263 269 275 279 281 282 285 288 293 296 298 303 306 309 313 315 318 321 325 327 329 328 327 328 329 333 337 340 335 337 339 344 342 341 338 342 340
244 245 245 243 244 246 249 254 261 266 269 270 271 273 276 280 283 289 291 295 298 300 302 305 310 315 318 321 319 321 327 328 332 333 333 328 332 335 333 336 334 340 339 340 335 338 340
246 247 248 250 252 255 257 259 260 264 266 270 273 276 280 282 286 286 288 290 291 296 302 305 311 313 318 320 322 322 323 323 327 330 332 330 330 329 328 334 331 337 335 340 337 334 335
247 250 252 254 255 255 257 259 264 267 270 272 273 274 276 279 281 282 284 288 292 296 301 305 307 312 312 318 321 319 322 322 323 328 332 329 329 330 332 335 335 333 334 335 337 333 335
251 254 255 256 258 260 260 262 266 269 269 270 272 273 274 276 279 282 288 291 295 298 302 302 305 306 308 314 319 322 325 324 323 324 324 324 327 326 328 333 334 329 333 331 333 332 332
257 257 256 258 260 262 263 265 265 269 271 271 272 274 277 280 284 288 291 294 296 297 299 300 302 304 305 310 312 316 321 320 323 322 320 325 326 325 327 329 327 327 330 330 331 331 331
256 257 262 264 265 266 266 267 268 269 271 274 276 276 278 281 285 288 290 292 293 294 298 298 302 303 307 309 316 319 320 322 323 327 326 325 324 322 323 326 322 324 326 328 328 328 331
255 257 255 258 264 267 271 271 272 274 276 277 280 283 283 284 286 287 291 288 289 292 294 298 301 299 302 304 309 313 317 318 320 326 328 328 323 319 320 321 317 323 322 324 325 327 327
255 257 259 262 265 267 270 272 273 274 276 277 278 280 283 285 287 288 290 289 292 293 298 302 301 302 303 304 308 311 314 313 316 322 327 326 319 314 313 314 315 317 318 320 322 323 326
Height
10796 10799 10802 10804 10806 10807 10807 10808 10808 10807 10806 10805 10805 10804 10804 10804 10805 10804 10804 10803 10802 10802 10801 10800 10800 10800 10798 10796 10793 10791 10789 10786 10783 10779 10776 10772 10767 10762 10757 10751 10743 10733 10724 10711 10697 10681 10661
10796 10800 10802 10804 10805 10806 10806 10806 10805 10803 10801 10800 10800 10800 10800 10801 10802 10802 10802 10802 10802 10802 10801 10800 10800 10799 10798 10795 10792 10790 10787 10784 10781 10777 10773 10769 10763 10757 10751 10745 10736 10724 10714 10701 10684 10670 10651
10797 10800 10802 10803 10804 10805 10805 10803 10801 10798 10795 10794 10793 10794 10796 10798 10800 10801 10802 10802 10802 10801 10800 10800 10799 10798 10796 10794 10790 10787 10784 10781 10777 10774 10770 10766 10761 10754 10747 10740 10728 10716 10702 10693 10674 10660 10645
10798 10800 10801 10802 10803 10803 10803 10801 10798 10793 10788 10786 10787 10789 10792 10795 10798 10801 10802 10802 10801 10801 10800 10799 10798 10796 10793 10790 10787 10785 10782 10779 10774 10770 10766 10761 10756 10750 10741 10731 10722 10711 10694 10685 10671 10650 10630
10797 10799 10800 10801 10802 10802 10802 10801 10797 10789 10785 10783 10784 10787 10791 10795 10799 10801 10802 10801 10801 10800 10799 10798 10796 10793 10791 10789 10786 10782 10779 10776 10771 10767 10762 10757 10751 10745 10736 10725 10714 10703 10689 10680 10665 10640 10616
10796 10798 10800 10801 10801 10802 10802 10800 10797 10792 10788 10786 10787 10790 10794 10797 10800 10801 10801 10801 10801 10800 10799 10796 10795 10792 10790 10787 10784 10781 10777 10773 10768 10763 10759 10753 10746 10738 10729 10717 10711 10699 10685 10667 10656 10632 10600
10796 10798 10799 10800 10801 10801 10801 10800 10798 10797 10794 10793 10794 10795 10798 10799 10801 10802 10802 10801 10802 10800 10798 10796 10794 10791 10788 10784 10781 10777 10773 10769 10765 10760 10754 10748 10741 10732 10722 10714 10702 10688 10672 10655 10640 10622 10597
10795 10797 10798 10799 10800 10801 10801 10801 10800 10799 10799 10799 10799 10800 10801 10802 10801 10802 10802 10802 10801 10800 10797 10795 10792 10789 10785 10782 10779 10775 10770 10765 10760 10755 10749 10742 10735 10727 10717 10703 10693 10678 10663 10646 10626 10614 10595
10793 10795 10797 10798 10800 10800 10801 10801 10801 10801 10801 10801 10801 10801 10802 10802 10802 10803 10803 10801 10800 10798 10795 10792 10789 10786 10783 10780 10775 10769 10764 10759 10754 10749 10743 10738 10730 10721 10711 10698 10683 10668 10655 10639 10623 10610 10588
10792 10794 10796 10797 10798 10800 10801 10801 10802 10802 10802 10802 10802 10802 10802 10802 10803 10803 10802 10800 10798 10795 10792 10789 10786 10783 10778 10773 10769 10764 10758 10752 10747 10743 10738 10731 10724 10716 10704 10690 10679 10666 10650 10632 10613 10600 10581
10790 10792 10795 10796 10797 10798 10800 10801 10802 10802 10803 10803 10803 10803 10802 10802 10802 10801 10799 10798 10796 10793 10791 10787 10783 10778 10774 10771 10766 10760 10755 10748 10742 10737 10731 10724 10716 10707 10696 10684 10672 10657 10644 10627 10609 10591 10576
10787 10789 10792 10793 10795 10796 10798 10799 10800 10801 10801 10802 10801 10802 10801 10801 10800 10798 10797 10795 10793 10790 10787 10783 10779 10774 10770 10766 10762 10757 10750 10742 10735 10730 10723 10716 10707 10698 10689 10677 10663 10650 10639 10624 10609 10586 10570
10784 10786 10788 10790 10792 10794 10795 10796 10797 10798 10798 10799 10799 10800 10800 10799 10798 10796 10795 10792 10790 10786 10783 10780 10775 10770 10766 10761 10756 10750 10744 10738 10731 10721 10713 10708 10700 10690 10682 10673 10657 10643 10626 10618 10606 10582 10552
10780 10783 10785 10787 10789 10791 10792 10793 10794 10795 10796 10796 10797 10797 10797 10796 10795 10793 10791 10789 10786 10784 10780 10776 10771 10766 10761 10755 10749 10744 10737 10731 10725 10718 10710 10701 10695 10684 10673 10662 10650 10634 10616 10595 10577 10568 10544
10777 10779 10780 10783 10785 10787 10789 10790 10791 10792 10793 10793 10793 10793 10793 10793 10791 10790 10788 10785 10783 10780 10776 10771 10766 10761 10756 10750 10745 10738 10731 10725 10719 10712 10705 10699 10687 10677 10663 10650 10638 10623 10609 10592 10577 10567 10549
10771 10773 10775 10778 10780 10782 10784 10786 10787 10787 10789 10789 10789 10789 10789 10788 10787 10785 10783 10781 10778 10775 10771 10766 10761 10756 10750 10744 10739 10732 10727 10719 10712 10705 10697 10688 10678 10668 10657 10643 10630 10613 10597 10582 10564 10541 10536
10765 10768 10770 10773 10775 10777 10779 10781 10782 10783 10785 10785 10785 10785 10784 10783 10782 10780 10778 10776 10773 10769 10765 10761 10756 10750 10744 10737 10732 10726 10720 10713 10706 10698 10690 10681 10669 10658 10649 10636 10621 10606 10590 10573 10558 10535 10516
10759 10762 10765 10768 10770 10772 10774 10775 10777 10778 10779 10779 10779 10778 10778 10777 10776 10774 10772 10770 10767 10763 10758 10754 10749 10743 10738 10732 10725 10719 10712 10705 10700 10693 10685 10675 10665 10649 10641 10629 10615 10600 10581 10566 10547 10531 10510
10753 10756 10759 10762 10764 10766 10768 10770 10771 10772 10772 10772 10772 10772 10771 10769 10768 10767 10765 10763 10759 10756 10752 10747 10742 10736 10731 10727 10721 10713 10706 10699 10693 10685 10678 10668 10658 10646 10632 10623 10612 10598 10576 10557 10544 10530 10511
10746 10749 10752 10755 10757 10759 10760 10762 10763 10764 10765 10765 10765 10765 10763 10762 10761 10760 10758 10755 10752 10748 10744 10740 10736 10731 10725 10718 10712 10708 10702 10693 10684 10676 10668 10661 10648 10632 10614 10603 10594 10584 10568 10549 10531 10522 10506
10739 10742 10745 10748 10750 10752 10754 10755 10757 10757 10758 10758 10758 10757 10756 10755 10754 10752 10750 10748 10744 10740 10736 10734 10728 10724 10719 10713 10704 10697 10690 10685 10675 10668 10660 10653 10648 10636 10612 10601 10586 10575 10561 10546 10528 10516 10498
10732 10735 10737 10739 10741 10743 10745 10747 10749 10750 10750 10750 10749 10749 10747 10747 10745 10744 10742 10739 10736 10733 10729 10724 10722 10717 10711 10705 10698 10693 10684 10676 10667 10660 10650 10643 10639 10635 10620 10602 10587 10574 10558 10543 10522 10502 10490
10721 10724 10727 10731 10733 10736 10738 10739 10740 10740 10741 10741 10741 10740 10739 10736 10736 10735 10733 10731 10727 10724 10719 10717 10713 10708 10702 10696 10690 10683 10675 10667 10657 10648 10639 10628 10622 10616 10613 10599 10581 10570 10555 10540 10520 10498 10482
10711 10715 10718 10720 10722 10725 10727 10729 10729 10730 10731 10730 10731 10730 10729 10726 10725 10723 10722 10720 10718 10715 10711 10705 10703 10699 10693 10687 10681 10674 10666 10658 10648 10636 10624 10613 10603 10596 10593 10588 10573 10556 10544 10530 10519 10492 10479
10703 10706 10708 10710 10711 10713 10715 10717 10718 10718 10718 10718 10720 10720 10719 10717 10714 10712 10713 10710 10708 10705 10701 10696 10693 10688 10682 10679 10675 10668 10661 10653 10642 10632 10619 10606 10594 10579 10571 10572 10564 10543 10536 10519 10507 10496 10474
10692 10695 10697 10698 10700 10701 10703 10704 10705 10706 10706 10705 10706 10707 10708 10709 10704 10703 10701 10699 10697 10693 10690 10685 10683 10676 10671 10668 10662 10656 10652 10641 10636 10626 10612 10598 10585 10565 10555 10548 10537 10529 10520 10507 10492 10484 10466
10680 10682 10684 10686 10687 10688 10690 10691 10693 10694 10693 10693 10693 10696 10697 10698 10693 10693 10689 10686 10683 10680 10679 10674 10671 10661 10657 10655 10650 10643 10640 10628 10621 10612 10601 10590 10573 10554 10543 10537 10525 10516 10503 10492 10477 10465 10452
10668 10670 10672 10673 10674 10674 10676 10677 10677 10678 10679 10680 10679 10680 10684 10688 10684 10680 10676 10672 10669 10665 10664 10664 10660 10648 10648 10636 10633 10630 10627 10618 10609 10604 10593 10581 10554 10537 10528 10521 10505 10501 10489 10480 10467 10453 10439
10652 10655 10657 10658 10658 10660 10661 10661 10663 10664 10665 10666 10666 10663 10666 10670 10674 10669 10665 10657 10655 10652 10651 10649 10641 10635 10631 10621 10614 10613 10609 10603 10596 10596 10586 10570 10551 10522 10514 10504 10496 10486 10477 10463 10454 10442 10430